Weather in Chegem-Vtoroy

Russia / The Kabardino-Balkar Republic     43°35′33″N   43°35′47″E
temp.,
°C
wind,
m/s
gust,
m/s
humid.,
%
clouds,
%
prec.,
mm/h
press.,
hPa
HPBL,
m
5 december, sun
sun500:00+6sw224037 0.0 101215
03:00+5wsw2237100 0.0 101114
06:00+7wsw223995 0.0 101016
09:00+8w2240100 0.0 101222
12:00+9ene113899 0.0 1012206
15:00+8n0047100 0.0 1013114
18:00+7w005857 0.0 101410
21:00+6sw226032 0.0 101618
6 december, mon
mon600:00+6wsw22595 0.0 101715
03:00+4wsw22605 0.0 101811
06:00+4sw21595 0.0 102011
09:00+6s11510 0.0 102019
12:00+9e22455 0.0 1019292
15:00+8e115110 0.0 1020197
18:00+5ssw116343 0.0 102211
21:00+5sw115910 0.0 102211
7 december, tue
tue700:00+5sw21570 0.0 102211
03:00+5sw21540 0.0 102211
06:00+5sw22550 0.0 102211
09:00+7s114914 0.0 102113
12:00+10e22450 0.0 1019251
15:00+9e22520 0.0 1018191
18:00+5sse11661 0.0 101810
21:00+5ssw11580 0.0 101511
8 december, wed
wed800:00+4ssw11580 0.0 101411
03:00+3wsw11590 0.0 101211
06:00+3sw115727 0.0 101111
09:00+6sw014911 0.0 101043
12:00+9ene1150100 0.0 1008130
15:00+9ne11560 0.0 1008100
18:00+7w116455 0.0 100911
21:00+7wsw225340 0.0 100912
9 december, thu
thu900:00+7wsw22525 0.0 101014
03:00+8wnw1154100 0.0 101211
06:00+7sw2156100 0.0 101410
09:00+7ssw1161100 0.1 101783
12:00+9nw1161100 0.1 1016357
15:00+8sw2376100 0.7 1018230
18:00+7sw3482100 0.8 1020154
21:00+6wnw0083100 0.9 102112